When you browse on this site, cookies collect data to enhance your experience and personalize the content and advertising you see.
Visit our Privacy Policy to learn more. By continuing to use the site, you agree to this use of cookies and data.
  • In Sweden
  • List of Countries
  • For 7 days
  • Water Temperature
  • Satellite Maps
  • Weather Map
  • Weather Widgets
  • user-avatar
    Login

    Hourly Weather Amudalavalasa

    Today, 13 December, Thursday

    Time Temperature Precipitation Wind Pressure Humidity
    00:00 +23°C° 0 mm 2 mps 760 mmHg 75%
    01:00 +23°C° 0 mm 2 mps 759 mmHg 75%
    02:00 +23°C° 0 mm 2 mps 759 mmHg 75%
    03:00 +23°C° 0 mm 2 mps 759 mmHg 76%
    04:00 +21°C° 0 mm 2 mps 759 mmHg 76%
    05:00 +21°C° 0 mm 2 mps 759 mmHg 76%
    06:00 +21°C° 0 mm 2 mps 759 mmHg 82%
    07:00 +24°C° 0 mm 2 mps 759 mmHg 76%
    08:00 +26°C° 0 mm 3 mps 759 mmHg 70%
    09:00 +27°C° 0 mm 3 mps 760 mmHg 63%
    10:00 +29°C° 0 mm 3 mps 760 mmHg 58%
    11:00 +31°C° 0 mm 3 mps 759 mmHg 52%
    12:00 +33°C° 0 mm 3 mps 759 mmHg 47%
    13:00 +33°C° 0 mm 4 mps 759 mmHg 46%
    14:00 +33°C° 0 mm 4 mps 758 mmHg 46%
    15:00 +33°C° 0 mm 4 mps 758 mmHg 46%
    16:00 +32°C° 0.1 mm 4 mps 758 mmHg 53%
    17:00 +29°C° 0.1 mm 4 mps 758 mmHg 60%
    18:00 +27°C° 0.1 mm 4 mps 758 mmHg 67%
    19:00 +26°C° 0.2 mm 3 mps 759 mmHg 71%
    20:00 +25°C° 0.2 mm 3 mps 759 mmHg 75%
    21:00 +25°C° 0.2 mm 2 mps 760 mmHg 79%
    22:00 +24°C° 0 mm 2 mps 760 mmHg 80%
    23:00 +24°C° 0 mm 2 mps 760 mmHg 80%

    Tomorrow, 14 December, Friday

    Time Temperature Precipitation Wind Pressure Humidity
    00:00 +24°C° 0 mm 2 mps 760 mmHg 81%
    01:00 +24°C° 0 mm 2 mps 760 mmHg 80%
    02:00 +24°C° 0 mm 2 mps 759 mmHg 80%
    03:00 +23°C° 0 mm 2 mps 759 mmHg 79%
    04:00 +22°C° 0 mm 3 mps 759 mmHg 78%
    05:00 +24°C° 0 mm 3 mps 759 mmHg 77%
    06:00 +24°C° 0 mm 3 mps 759 mmHg 75%
    07:00 +25°C° 0 mm 3 mps 759 mmHg 71%
    08:00 +26°C° 0 mm 3 mps 760 mmHg 67%
    09:00 +27°C° 0 mm 3 mps 760 mmHg 63%
    10:00 +28°C° 0 mm 4 mps 760 mmHg 55%
    11:00 +30°C° 0 mm 5 mps 760 mmHg 47%
    12:00 +33°C° 0 mm 5 mps 760 mmHg 39%
    13:00 +33°C° 0 mm 6 mps 759 mmHg 38%
    14:00 +33°C° 0 mm 6 mps 759 mmHg 38%
    15:00 +33°C° 0 mm 6 mps 758 mmHg 37%
    16:00 +30°C° 0 mm 6 mps 758 mmHg 42%
    17:00 +29°C° 0 mm 6 mps 758 mmHg 47%
    18:00 +27°C° 0 mm 6 mps 759 mmHg 51%
    19:00 +26°C° 0 mm 5 mps 759 mmHg 56%
    20:00 +25°C° 0 mm 5 mps 760 mmHg 60%
    21:00 +25°C° 0 mm 4 mps 760 mmHg 64%
    22:00 +23°C° 0 mm 4 mps 760 mmHg 65%
    23:00 +23°C° 0 mm 4 mps 760 mmHg 66%

    Day after tomorrow, 15 December, Saturday

    Time Temperature Precipitation Wind Pressure Humidity
    00:00 +22°C° 0 mm 4 mps 760 mmHg 67%
    01:00 +22°C° 0 mm 4 mps 759 mmHg 66%
    02:00 +22°C° 0 mm 4 mps 759 mmHg 66%
    03:00 +22°C° 0 mm 4 mps 759 mmHg 65%
    04:00 +22°C° 0 mm 4 mps 759 mmHg 65%
    05:00 +21°C° 0 mm 4 mps 759 mmHg 65%
    06:00 +21°C° 0 mm 4 mps 759 mmHg 64%
    07:00 +22°C° 0 mm 5 mps 759 mmHg 60%
    08:00 +24°C° 0 mm 6 mps 760 mmHg 55%
    09:00 +26°C° 0 mm 6 mps 760 mmHg 50%
    10:00 +26°C° 0 mm 6 mps 760 mmHg 47%
    11:00 +27°C° 0 mm 6 mps 760 mmHg 43%
    12:00 +27°C° 0 mm 6 mps 760 mmHg 39%
    13:00 +27°C° 0 mm 7 mps 760 mmHg 41%
    14:00 +26°C° 0 mm 7 mps 759 mmHg 42%
    15:00 +24°C° 0 mm 7 mps 759 mmHg 44%
    16:00 +24°C° 0.1 mm 7 mps 759 mmHg 46%
    17:00 +23°C° 0.1 mm 6 mps 759 mmHg 48%
    18:00 +22°C° 0.1 mm 6 mps 759 mmHg 50%
    19:00 +21°C° 0.5 mm 6 mps 760 mmHg 54%
    20:00 +21°C° 0.5 mm 6 mps 760 mmHg 58%
    21:00 +20°C° 0.5 mm 5 mps 761 mmHg 62%
    22:00 +20°C° 0.3 mm 5 mps 761 mmHg 63%
    23:00 +20°C° 0.3 mm 5 mps 760 mmHg 64%

    16 December, Sunday

    Time Temperature Precipitation Wind Pressure Humidity
    00:00 +19°C° 0.3 mm 5 mps 760 mmHg 65%
    01:00 +19°C° 0.5 mm 5 mps 759 mmHg 67%
    02:00 +19°C° 0.5 mm 5 mps 759 mmHg 68%
    03:00 +19°C° 0.5 mm 5 mps 758 mmHg 70%
    04:00 +17°C° 1.5 mm 5 mps 758 mmHg 74%
    05:00 +17°C° 1.5 mm 5 mps 758 mmHg 78%
    06:00 +17°C° 1.5 mm 6 mps 758 mmHg 82%
    07:00 +17°C° 0.3 mm 6 mps 759 mmHg 81%
    08:00 +19°C° 0.3 mm 6 mps 759 mmHg 80%
    09:00 +18°C° 0.3 mm 7 mps 759 mmHg 78%
    10:00 +20°C° 0 mm 7 mps 759 mmHg 74%
    11:00 +21°C° 0 mm 7 mps 759 mmHg 69%
    12:00 +22°C° 0 mm 8 mps 758 mmHg 65%
    13:00 +22°C° 0 mm 8 mps 758 mmHg 61%
    14:00 +23°C° 0 mm 8 mps 757 mmHg 58%
    15:00 +23°C° 0 mm 9 mps 756 mmHg 55%
    16:00 +22°C° 0 mm 8 mps 757 mmHg 57%
    17:00 +22°C° 0 mm 7 mps 757 mmHg 59%
    18:00 +22°C° 0 mm 7 mps 757 mmHg 61%
    19:00 +22°C° 0 mm 7 mps 758 mmHg 61%
    20:00 +21°C° 0 mm 7 mps 758 mmHg 62%
    21:00 +21°C° 0 mm 7 mps 759 mmHg 62%
    22:00 +21°C° 0.1 mm 7 mps 759 mmHg 62%
    23:00 +21°C° 0.1 mm 7 mps 758 mmHg 62%

    17 December, Monday

    Time Temperature Precipitation Wind Pressure Humidity
    00:00 +21°C° 0.1 mm 7 mps 758 mmHg 62%
    01:00 +21°C° 0.6 mm 7 mps 758 mmHg 62%
    02:00 +21°C° 0.6 mm 7 mps 757 mmHg 62%
    03:00 +21°C° 0.6 mm 7 mps 756 mmHg 62%
    04:00 +21°C° 0.8 mm 7 mps 756 mmHg 63%
    05:00 +21°C° 0.8 mm 7 mps 756 mmHg 63%
    06:00 +20°C° 0.8 mm 7 mps 756 mmHg 64%
    07:00 +21°C° 1.1 mm 7 mps 756 mmHg 65%
    08:00 +21°C° 1.1 mm 7 mps 757 mmHg 66%
    09:00 +21°C° 1.1 mm 7 mps 757 mmHg 66%
    10:00 +21°C° 1.4 mm 6 mps 757 mmHg 69%
    11:00 +21°C° 1.4 mm 6 mps 757 mmHg 72%
    12:00 +21°C° 1.4 mm 5 mps 757 mmHg 75%
    13:00 +22°C° 1.9 mm 5 mps 756 mmHg 77%
    14:00 +22°C° 1.9 mm 5 mps 755 mmHg 78%
    15:00 +22°C° 1.9 mm 6 mps 755 mmHg 80%
    16:00 +22°C° 0.7 mm 5 mps 755 mmHg 82%
    17:00 +21°C° 0.7 mm 4 mps 755 mmHg 85%
    18:00 +21°C° 0.7 mm 3 mps 756 mmHg 87%
    19:00 +21°C° 0.1 mm 3 mps 756 mmHg 88%
    20:00 +21°C° 0.1 mm 3 mps 757 mmHg 88%
    21:00 +21°C° 0.1 mm 3 mps 757 mmHg 88%
    22:00 +21°C° 0.1 mm 3 mps 757 mmHg 88%
    23:00 +21°C° 0.1 mm 3 mps 757 mmHg 89%

    18 December, Tuesday

    Time Temperature Precipitation Wind Pressure Humidity
    00:00 +21°C° 0.1 mm 3 mps 757 mmHg 89%
    01:00 +21°C° 0.1 mm 3 mps 757 mmHg 89%
    02:00 +21°C° 0.1 mm 3 mps 756 mmHg 89%
    03:00 +21°C° 0.1 mm 3 mps 756 mmHg 89%
    04:00 +21°C° 0.1 mm 2 mps 756 mmHg 89%
    05:00 +21°C° 0.1 mm 2 mps 756 mmHg 90%
    06:00 +21°C° 0.1 mm 2 mps 756 mmHg 90%
    07:00 +21°C° 0 mm 2 mps 757 mmHg 89%
    08:00 +23°C° 0 mm 2 mps 758 mmHg 87%
    09:00 +22°C° 0 mm 3 mps 758 mmHg 86%
    10:00 +24°C° 0 mm 3 mps 758 mmHg 83%
    11:00 +24°C° 0 mm 3 mps 758 mmHg 81%
    12:00 +25°C° 0 mm 3 mps 758 mmHg 79%
    13:00 +26°C° 0 mm 3 mps 757 mmHg 78%
    14:00 +26°C° 0 mm 3 mps 756 mmHg 77%
    15:00 +26°C° 0 mm 2 mps 756 mmHg 76%
    16:00 +26°C° 0.1 mm 3 mps 756 mmHg 79%
    17:00 +25°C° 0.1 mm 3 mps 756 mmHg 82%
    18:00 +25°C° 0.1 mm 3 mps 757 mmHg 84%
    19:00 +24°C° 0 mm 3 mps 757 mmHg 86%
    20:00 +24°C° 0 mm 3 mps 758 mmHg 88%
    21:00 +22°C° 0 mm 3 mps 758 mmHg 89%
    22:00 +22°C° 0 mm 3 mps 758 mmHg 89%
    23:00 +22°C° 0 mm 3 mps 758 mmHg 89%
    Show more